"startDT [UTC]","vpos","CH4 [ppm]","stdev(CH4) [ppm]","CO2 [ppm]","stdev(CO2) [ppm]","H2O_reported [%]","stdev(H2O_reported)","CavityPressure [torr]","CavityTemp [C]","OutletValve","CH4_dry [ppm]","CO2_dry [ppm]","DasTemp [C]","EtalonTemp [C]","WarmBoxTemp [C]","MPVPosition","T_ECpre [C]","T_EC1 [C]","T_EC2 [C]","p_inlet [hPa]","p_in [hPa]","p_out [hPa]","T_inlet [C]","RH_inlet [%]","dwpt_inlet [C]","T_vent [C]","RH_vent [%]","dwpt_vent [C]","flow_vent [l min-1]","flow_inlet [l min-1]","dwpt_sample [C]","T_room [C]"
2015-07-15 00:00:00,0.0,1.89657,0.00045,384.673,0.058,1.1121,0.0019,140.005,45.000,32479.03350,1.91807,390.011,36.168,45.067,45.000,0.00,0.10,-272.73,-272.80,-2,670,-9,27.0,24.3,4.8,26.7,24.8,4.9,5.73,1.61,3.3,30.5
2015-07-15 00:01:00,0.0,1.89653,0.00039,384.588,0.077,1.1084,0.0021,139.999,45.000,32478.37406,1.91798,389.899,36.161,45.066,45.000,0.00,0.10,-272.74,-272.81,-1,670,-9,27.0,24.2,4.8,26.7,24.9,4.9,5.73,1.71,3.3,30.5
2015-07-15 00:02:00,0.0,1.89693,0.00040,384.378,0.179,1.1078,0.0019,139.996,45.000,32475.39004,1.91837,389.688,36.167,45.067,45.000,0.00,0.10,-272.73,-272.80,-2,670,-10,27.0,24.2,4.8,26.7,24.9,4.9,5.73,1.87,3.3,30.5
2015-07-15 00:03:00,0.0,1.89712,0.00055,384.415,0.177,1.1128,0.0024,140.003,45.000,32476.78439,1.91865,389.759,36.161,45.067,45.000,0.00,0.10,-272.73,-272.80,-2,670,-9,27.0,24.3,4.9,26.7,24.9,4.9,5.73,1.63,3.3,30.5
2015-07-15 00:04:00,0.0,1.89692,0.00044,384.444,0.230,1.1140,0.0028,139.999,45.000,32476.58845,1.91847,389.771,36.169,45.067,45.000,0.00,0.10,-272.74,-272.81,-1,670,-9,27.0,24.4,4.9,26.7,24.9,4.9,5.73,1.67,3.3,30.5
2015-07-15 00:05:00,0.0,1.89696,0.00032,384.479,0.077,1.1168,0.0029,139.999,45.000,32475.94111,1.91856,389.839,36.172,45.067,45.000,0.00,0.10,-272.74,-272.80,-2,670,-9,27.0,24.4,4.9,26.7,24.8,4.9,5.73,1.88,3.3,30.5
2015-07-15 00:06:00,0.0,1.89772,0.00047,384.153,0.105,1.1133,0.0019,139.999,45.000,32474.71435,1.91921,389.490,36.186,45.067,45.000,0.00,0.10,-272.73,-272.80,-1,670,-9,27.0,24.3,4.9,26.7,24.8,4.9,5.73,1.67,3.3,30.6
2015-07-15 00:07:00,0.0,1.89754,0.00052,384.169,0.307,1.1180,0.0022,140.003,45.000,32474.82544,1.91927,389.513,36.182,45.067,45.000,0.00,0.10,-272.73,-272.80,-2,670,-9,27.0,24.5,5.0,26.7,24.8,4.9,5.73,1.64,3.3,30.6
2015-07-15 00:08:00,0.0,1.89711,0.00051,384.271,0.148,1.1234,0.0020,140.004,45.000,32475.77151,1.91881,389.666,36.182,45.067,45.000,0.00,0.10,-272.74,-272.80,-2,670,-9,27.0,24.5,5.0,26.7,24.8,4.9,5.73,1.87,3.3,30.6
2015-07-15 00:09:00,0.0,1.89748,0.00047,384.132,0.192,1.1219,0.0020,140.001,45.000,32476.12765,1.91923,389.504,36.168,45.067,45.000,0.00,0.10,-272.74,-272.79,-1,670,-9,27.0,24.5,5.0,26.7,24.8,4.9,5.73,1.72,3.3,30.6
2015-07-15 00:10:00,0.0,1.89739,0.00042,384.103,0.137,1.1262,0.0023,140.002,45.000,32477.50363,1.91918,389.500,36.174,45.067,45.000,0.00,0.10,-272.73,-272.80,-2,670,-9,27.0,24.6,5.0,26.7,24.8,4.9,5.73,1.60,3.3,30.6
2015-07-15 00:11:00,0.0,1.89725,0.00060,384.148,0.103,1.1262,0.0026,140.001,45.000,32478.45360,1.91910,389.553,36.165,45.067,45.000,0.00,0.10,-272.73,-272.80,-2,670,-9,27.0,24.6,5.1,26.7,24.8,4.9,5.73,1.84,3.3,30.6
2015-07-15 00:12:00,0.0,1.89726,0.00040,383.775,0.176,1.1266,0.0015,140.001,45.000,32477.88107,1.91908,389.182,36.178,45.067,45.000,0.00,0.10,-272.73,-272.79,-1,670,-9,27.0,24.7,5.1,26.7,24.8,4.9,5.73,1.78,3.3,30.6
2015-07-15 00:13:00,0.0,1.89751,0.00050,383.122,0.125,1.1325,0.0025,140.001,45.000,32480.34913,1.91938,388.534,36.154,45.067,45.000,0.00,0.10,-272.73,-272.80,-2,670,-9,27.0,24.9,5.2,26.7,24.8,4.9,5.73,1.59,3.3,30.5
2015-07-15 00:14:00,0.0,1.89815,0.00053,383.531,0.365,1.1448,0.0031,139.995,45.000,32477.43143,1.92031,388.996,36.177,45.067,45.000,0.00,0.10,-272.74,-272.80,-1,670,-9,27.0,25.1,5.3,26.7,24.7,4.9,5.73,1.80,3.3,30.6
2015-07-15 00:15:00,0.0,1.89779,0.00049,383.672,0.136,1.1476,0.0030,140.008,45.000,32480.10175,1.92008,389.177,36.176,45.067,45.000,0.00,0.10,-272.74,-272.80,-2,670,-9,27.0,25.0,5.3,26.7,24.7,4.8,5.73,1.82,3.3,30.6
2015-07-15 00:16:00,0.0,1.89818,0.00045,383.722,0.201,1.1419,0.0031,140.004,45.000,32477.98012,1.92028,389.177,36.172,45.067,45.000,0.00,0.10,-272.73,-272.80,-2,670,-9,27.0,24.9,5.2,26.7,24.7,4.8,5.73,1.59,3.3,30.6
2015-07-15 00:17:00,0.0,1.89778,0.00040,383.732,0.244,1.1385,0.0027,140.001,45.000,32476.69031,1.91993,389.205,36.187,45.067,45.000,0.00,0.10,-272.73,-272.80,-1,670,-9,27.0,24.9,5.2,26.7,24.7,4.8,5.73,1.75,3.3,30.6
2015-07-15 00:18:00,0.0,1.89793,0.00033,383.687,0.286,1.1373,0.0027,140.004,45.000,32476.74358,1.91990,389.117,36.188,45.067,45.000,0.00,0.10,-272.74,-272.80,-2,670,-10,27.0,24.9,5.2,26.7,24.7,4.8,5.73,1.85,3.3,30.7
2015-07-15 00:19:00,0.0,1.89819,0.00050,383.658,0.092,1.1407,0.0022,139.999,45.000,32475.67224,1.92028,389.127,36.191,45.067,45.000,0.00,0.10,-272.73,-272.80,-2,670,-9,27.0,24.9,5.2,26.7,24.7,4.8,5.73,1.62,3.3,30.6
2015-07-15 00:20:00,0.0,1.89860,0.00055,383.476,0.208,1.1384,0.0017,139.997,45.000,32474.57104,1.92065,388.925,36.188,45.067,45.000,0.00,0.10,-272.74,-272.80,-1,670,-9,27.0,24.9,5.2,26.7,24.7,4.9,5.73,1.69,3.3,30.6
2015-07-15 00:21:00,0.0,1.89801,0.00066,384.072,0.170,1.1411,0.0019,140.000,45.000,32475.61233,1.92017,389.520,36.188,45.067,45.000,0.00,0.10,-272.74,-272.81,-2,670,-9,27.0,24.9,5.2,26.7,24.7,4.9,5.73,1.88,3.3,30.6
2015-07-15 00:22:00,0.0,1.89881,0.00084,383.820,0.273,1.1345,0.0046,139.999,45.000,32474.07939,1.92075,389.281,36.175,45.067,45.000,0.00,0.10,-272.74,-272.80,-1,670,-10,27.0,24.7,5.1,26.7,24.7,4.9,5.73,1.67,3.3,30.6
2015-07-15 00:23:00,0.0,1.89946,0.00063,383.416,0.223,1.1298,0.0022,139.997,45.000,32475.63381,1.92135,388.805,36.166,45.067,45.000,0.00,0.10,-272.73,-272.79,-1,670,-9,27.0,24.7,5.1,26.7,24.8,4.9,5.73,1.64,3.3,30.5
2015-07-15 00:24:00,0.0,1.89957,0.00050,383.588,0.135,1.1378,0.0027,140.001,45.000,32477.59015,1.92162,389.038,36.153,45.067,45.000,0.00,0.10,-272.74,-272.80,-2,670,-10,27.0,24.9,5.2,26.7,24.8,4.9,5.73,1.87,3.3,30.5
2015-07-15 00:25:00,0.0,1.89976,0.00040,383.651,0.085,1.1383,0.0021,140.005,45.000,32477.37211,1.92179,389.105,36.131,45.067,45.000,0.00,0.10,-272.74,-272.80,-1,670,-9,27.0,24.8,5.2,26.7,24.8,4.9,5.73,1.73,3.3,30.5
2015-07-15 00:26:00,0.0,1.89980,0.00054,383.511,0.039,1.1366,0.0015,140.001,45.000,32478.22852,1.92187,388.948,36.133,45.067,45.000,0.00,0.10,-272.73,-272.80,-2,670,-9,27.0,24.8,5.2,26.7,24.8,4.9,5.73,1.60,3.3,30.5
2015-07-15 00:27:00,0.0,1.90040,0.00034,383.659,0.061,1.1379,0.0021,140.004,45.000,32477.42385,1.92248,389.105,36.136,45.067,45.000,0.00,0.10,-272.73,-272.80,-2,670,-9,27.0,24.9,5.2,26.7,24.8,4.9,5.73,1.83,3.3,30.5
2015-07-15 00:28:00,0.0,1.90072,0.00037,383.527,0.114,1.1378,0.0016,140.002,45.000,32477.71474,1.92279,388.982,36.126,45.067,45.000,0.00,0.10,-272.73,-272.80,-1,670,-9,27.0,24.9,5.2,26.7,24.8,4.9,5.73,1.79,3.3,30.5
2015-07-15 00:29:00,0.0,1.90168,0.00065,383.068,0.115,1.1398,0.0022,140.001,45.000,32477.19513,1.92372,388.526,36.155,45.067,45.000,0.00,0.10,-272.73,-272.80,-2,670,-9,27.0,24.9,5.2,26.7,24.8,4.9,5.73,1.59,3.3,30.5
2015-07-15 00:30:00,0.0,1.90195,0.00043,382.970,0.225,1.1466,0.0032,139.997,45.000,32476.37068,1.92425,388.442,36.187,45.067,45.000,0.00,0.35,-270.50,-270.72,-2,670,-9,27.0,25.2,5.4,26.7,24.9,4.9,5.43,1.96,-0.5,30.5
2015-07-15 00:31:00,0.0,1.90120,0.00058,383.208,0.096,1.1565,0.0022,140.001,45.000,32478.19589,1.92370,388.735,36.200,45.067,45.000,0.00,0.10,-272.74,-272.80,-1,670,-9,27.0,25.3,5.4,26.7,24.9,4.9,5.73,1.85,3.3,30.5
2015-07-15 00:32:00,0.0,1.90094,0.00047,383.319,0.164,1.1557,0.0018,140.000,45.000,32476.23533,1.92338,388.845,36.204,45.067,45.000,0.00,0.10,-272.74,-272.81,-2,670,-9,27.0,25.2,5.4,26.7,24.9,4.9,5.73,1.62,3.3,30.6
2015-07-15 00:33:00,0.0,1.90158,0.00060,383.349,0.214,1.1528,0.0019,139.999,45.000,32476.77205,1.92389,388.884,36.230,45.066,44.999,0.00,0.10,-272.73,-272.80,-1,670,-9,27.0,25.2,5.4,26.7,24.9,4.9,5.73,1.71,3.3,30.5
2015-07-15 00:34:00,0.0,1.90188,0.00044,382.864,0.232,1.1541,0.0027,139.999,45.000,32476.99765,1.92433,388.382,36.248,45.066,44.999,0.00,0.10,-272.74,-272.80,-2,670,-9,27.0,25.3,5.4,26.7,24.9,4.9,5.73,1.87,3.3,30.6
2015-07-15 00:35:00,0.0,1.90128,0.00052,383.076,0.228,1.1617,0.0038,139.999,45.000,32478.29857,1.92390,388.633,36.250,45.066,45.000,0.00,0.10,-272.74,-272.80,-2,670,-9,27.0,25.5,5.6,26.7,24.9,4.9,5.73,1.66,3.3,30.6
2015-07-15 00:36:00,0.0,1.90159,0.00037,383.260,0.171,1.1625,0.0019,140.005,45.000,32479.63947,1.92410,388.815,36.244,45.066,44.999,0.00,0.10,-272.73,-272.80,-1,670,-9,27.0,25.4,5.5,26.7,24.9,5.0,5.73,1.64,3.3,30.5
2015-07-15 00:37:00,0.0,1.90178,0.00024,383.314,0.071,1.1598,0.0029,140.000,45.000,32477.68863,1.92435,388.866,36.225,45.066,45.000,0.00,0.10,-272.73,-272.80,-2,670,-9,27.0,25.3,5.4,26.7,24.9,5.0,5.73,1.87,3.3,30.5
2015-07-15 00:38:00,0.0,1.90216,0.00052,383.420,0.119,1.1560,0.0021,140.003,45.000,32477.84668,1.92464,388.950,36.231,45.067,45.000,0.00,0.10,-272.74,-272.80,-2,670,-9,27.0,25.3,5.4,26.7,24.9,5.0,5.73,1.73,3.3,30.5
2015-07-15 00:39:00,0.0,1.90205,0.00042,383.306,0.143,1.1557,0.0023,140.001,45.000,32478.71421,1.92443,388.847,36.220,45.067,45.000,0.00,0.10,-272.73,-272.80,-1,670,-9,27.0,25.2,5.4,26.7,24.9,5.0,5.73,1.60,3.3,30.5
2015-07-15 00:40:00,0.0,1.90266,0.00050,383.116,0.214,1.1571,0.0015,140.000,45.000,32475.56968,1.92513,388.649,36.232,45.067,45.000,0.00,0.10,-272.73,-272.80,-2,670,-9,27.0,25.3,5.5,26.7,25.0,5.0,5.73,1.82,3.3,30.5
2015-07-15 00:41:00,0.0,1.90276,0.00033,383.216,0.113,1.1623,0.0021,140.001,45.000,32475.76218,1.92535,388.780,36.210,45.067,45.000,0.00,0.10,-272.74,-272.80,-2,670,-9,27.0,25.4,5.5,26.7,25.0,5.0,5.73,1.81,3.3,30.6
2015-07-15 00:42:00,0.0,1.90290,0.00058,382.952,0.092,1.1617,0.0017,140.003,45.000,32477.36693,1.92555,388.513,36.240,45.067,45.000,0.00,0.10,-272.73,-272.81,-1,670,-10,27.0,25.4,5.5,26.7,25.0,5.0,5.73,1.60,3.3,30.6
2015-07-15 00:43:00,0.0,1.90241,0.00045,382.769,0.097,1.1681,0.0032,139.999,45.000,32475.81628,1.92508,388.362,36.247,45.067,45.000,0.00,0.10,-272.73,-272.80,-2,670,-9,27.0,25.6,5.6,26.7,25.0,5.0,5.73,1.74,3.3,30.6
2015-07-15 00:44:00,0.0,1.90270,0.00049,382.273,0.173,1.1729,0.0020,140.000,45.000,32474.30617,1.92553,387.869,36.249,45.067,45.000,0.00,0.10,-272.73,-272.80,-1,670,-9,27.0,25.7,5.7,26.7,25.0,5.0,5.73,1.86,3.3,30.6
2015-07-15 00:45:00,0.0,1.90210,0.00040,382.691,0.101,1.1820,0.0035,139.999,45.000,32476.21189,1.92506,388.343,36.253,45.067,45.000,0.00,0.10,-272.74,-272.80,-1,670,-10,27.0,26.0,5.8,26.7,25.0,5.0,5.73,1.64,3.3,30.5
2015-07-15 00:46:00,0.0,1.90267,0.00053,382.445,0.092,1.1811,0.0026,140.003,45.000,32477.33889,1.92559,388.101,36.257,45.067,45.000,0.00,0.10,-272.73,-272.80,-2,670,-10,27.0,25.9,5.8,26.7,25.1,5.0,5.73,1.66,3.3,30.5
2015-07-15 00:47:00,0.0,1.90284,0.00061,382.595,0.392,1.1839,0.0021,140.002,45.000,32474.87959,1.92592,388.243,36.250,45.067,45.000,0.00,0.10,-272.74,-272.80,-1,670,-9,27.0,26.0,5.8,26.7,25.1,5.0,5.73,1.87,3.3,30.5
2015-07-15 00:48:00,0.0,1.90266,0.00050,382.962,0.141,1.1843,0.0032,140.003,45.000,32475.15706,1.92569,388.631,36.250,45.067,45.000,0.00,0.10,-272.74,-272.80,-2,670,-9,27.0,25.9,5.8,26.7,25.1,5.1,5.73,1.72,3.3,30.5
2015-07-15 00:49:00,0.0,1.90307,0.00032,382.829,0.172,1.1751,0.0043,139.997,45.000,32472.61629,1.92590,388.457,36.250,45.067,45.000,0.00,0.10,-272.73,-272.80,-2,670,-10,27.0,25.6,5.6,26.7,25.1,5.1,5.73,1.61,3.3,30.5
2015-07-15 00:50:00,0.0,1.90309,0.00053,383.217,0.074,1.1702,0.0022,140.004,45.000,32473.90773,1.92589,388.810,36.238,45.067,45.000,0.00,0.10,-272.74,-272.79,-1,670,-9,27.0,25.6,5.6,26.7,25.1,5.1,5.73,1.82,3.3,30.5
2015-07-15 00:51:00,0.0,1.90327,0.00048,383.084,0.151,1.1629,0.0034,139.997,45.000,32473.06887,1.92587,388.646,36.222,45.067,45.000,0.00,0.10,-272.74,-272.80,-2,670,-10,27.0,25.4,5.5,26.7,25.1,5.1,5.73,1.80,3.3,30.5
2015-07-15 00:52:00,0.0,1.90417,0.00033,382.855,0.374,1.1632,0.0022,140.000,45.000,32472.07069,1.92674,388.431,36.198,45.067,45.000,0.00,0.10,-272.73,-272.80,-2,670,-9,27.0,25.4,5.5,26.7,25.2,5.1,5.73,1.60,3.3,30.5
2015-07-15 00:53:00,0.0,1.90382,0.00032,382.859,0.158,1.1665,0.0056,140.000,45.000,32472.10501,1.92654,388.440,36.195,45.067,45.000,0.00,0.10,-272.73,-272.80,-1,670,-10,27.0,25.6,5.6,26.7,25.2,5.1,5.73,1.74,3.3,30.6
2015-07-15 00:54:00,0.0,1.90374,0.00038,382.397,0.202,1.1751,0.0021,139.998,45.000,32474.30973,1.92659,388.014,36.222,45.067,45.000,0.00,0.10,-272.74,-272.80,-2,670,-9,27.0,25.8,5.7,26.7,25.2,5.1,5.73,1.86,3.3,30.6
2015-07-15 00:55:00,0.0,1.90370,0.00038,382.546,0.229,1.1840,0.0030,140.003,45.000,32473.47607,1.92678,388.199,36.234,45.067,45.000,0.00,0.10,-272.74,-272.81,-2,670,-10,27.0,26.0,5.8,26.7,25.2,5.1,5.73,1.65,3.3,30.6
2015-07-15 00:56:00,0.0,1.90350,0.00039,382.557,0.240,1.1851,0.0018,139.998,45.000,32473.32254,1.92652,388.243,36.244,45.067,45.000,0.00,0.10,-272.73,-272.80,-1,670,-9,27.0,25.9,5.8,26.7,25.3,5.2,5.73,1.65,3.3,30.6
2015-07-15 00:57:00,0.0,1.90320,0.00039,382.760,0.337,1.1821,0.0027,140.000,45.000,32473.99139,1.92627,388.400,36.234,45.067,45.000,0.00,0.10,-272.73,-272.80,-2,670,-9,27.0,25.9,5.8,26.7,25.3,5.2,5.73,1.86,3.3,30.5
2015-07-15 00:58:00,0.0,1.90392,0.00029,382.367,0.195,1.1811,0.0032,140.002,45.000,32473.06514,1.92687,388.025,36.246,45.067,45.000,0.00,0.10,-272.74,-272.80,-1,670,-10,27.0,25.8,5.7,26.7,25.3,5.2,5.73,1.74,3.3,30.6
2015-07-15 00:59:00,0.0,1.90380,0.00037,381.800,0.319,1.1839,0.0041,140.007,45.000,32472.50030,1.92685,387.446,36.249,45.067,45.000,0.00,0.10,-272.74,-272.80,-2,670,-9,27.0,26.0,5.9,26.7,25.3,5.2,5.73,1.60,3.3,30.5
2015-07-15 01:00:00,0.0,1.90377,0.00039,382.621,0.194,1.1950,0.0049,140.000,45.000,32469.44655,1.92704,388.323,36.238,45.067,45.000,0.00,0.10,-272.73,-272.79,-2,670,-9,27.0,26.2,6.0,26.7,25.4,5.2,5.73,1.80,3.3,30.5
2015-07-15 01:01:00,0.0,1.90394,0.00036,382.613,0.263,1.1866,0.0061,139.998,45.000,32467.65258,1.92704,388.289,36.245,45.067,45.000,0.00,0.10,-272.74,-272.80,-1,670,-10,27.0,25.9,5.8,26.7,25.4,5.2,5.73,1.83,3.3,30.6
2015-07-15 01:02:00,0.0,1.90426,0.00031,382.793,0.097,1.1834,0.0029,140.003,45.000,32469.31038,1.92731,388.463,36.250,45.067,45.000,0.00,0.10,-272.74,-272.80,-2,670,-10,27.0,25.8,5.7,26.7,25.4,5.2,5.73,1.62,3.3,30.6
2015-07-15 01:03:00,0.0,1.90385,0.00035,382.768,0.120,1.1765,0.0027,140.000,45.000,32469.79542,1.92674,388.396,36.250,45.067,45.000,0.00,0.10,-272.73,-272.80,-2,670,-10,27.0,25.7,5.7,26.7,25.4,5.2,5.73,1.71,3.3,30.6
2015-07-15 01:04:00,0.0,1.90384,0.00044,382.537,0.108,1.1772,0.0020,140.002,45.000,32471.93126,1.92679,388.163,36.251,45.067,45.000,0.00,0.10,-272.73,-272.80,-1,670,-9,27.0,25.7,5.7,26.7,25.4,5.3,5.73,1.87,3.3,30.6
2015-07-15 01:05:00,0.0,1.90307,0.00042,382.906,0.087,1.1785,0.0030,139.998,45.000,32471.09939,1.92598,388.539,36.249,45.067,45.000,0.00,0.10,-272.74,-272.80,-2,670,-10,27.0,25.8,5.7,26.7,25.4,5.3,5.73,1.68,3.3,30.5
2015-07-15 01:06:00,0.0,1.90379,0.00018,382.324,0.363,1.1745,0.0029,140.000,45.000,32471.05183,1.92664,387.958,36.243,45.067,45.000,0.00,0.10,-272.74,-272.80,-2,670,-10,27.0,25.6,5.6,26.7,25.5,5.3,5.73,1.62,3.3,30.6
2015-07-15 01:07:00,0.0,1.90356,0.00040,382.445,0.201,1.1792,0.0045,139.994,45.000,32470.20927,1.92650,388.063,36.239,45.067,45.000,0.00,0.10,-272.73,-272.80,-1,670,-10,27.0,25.9,5.8,26.7,25.5,5.3,5.73,1.83,3.3,30.6
2015-07-15 01:08:00,0.0,1.90356,0.00041,382.473,0.151,1.1827,0.0032,140.003,45.000,32473.72118,1.92657,388.124,36.229,45.067,45.000,0.00,0.10,-272.73,-272.80,-2,670,-10,27.0,25.8,5.8,26.7,25.5,5.3,5.73,1.78,3.3,30.6
2015-07-15 01:09:00,0.0,1.90437,0.00047,382.509,0.134,1.1797,0.0016,140.004,45.000,32472.79348,1.92729,388.147,36.203,45.067,45.000,0.00,0.10,-272.73,-272.80,-2,670,-10,27.0,25.8,5.7,26.7,25.5,5.3,5.73,1.60,3.3,30.6
2015-07-15 01:10:00,0.0,1.90477,0.00024,382.359,0.157,1.1812,0.0016,139.998,45.000,32470.96836,1.92779,388.012,36.189,45.067,45.000,0.00,0.10,-272.73,-272.80,-1,670,-10,27.0,25.9,5.8,26.7,25.5,5.3,5.73,1.75,3.3,30.6
2015-07-15 01:11:00,0.0,1.90473,0.00044,382.391,0.114,1.1863,0.0026,140.001,45.000,32472.53952,1.92786,388.053,36.190,45.067,45.001,0.00,0.10,-272.74,-272.80,-3,670,-10,27.0,26.0,5.8,26.7,25.6,5.3,5.73,1.86,3.3,30.5
2015-07-15 01:12:00,0.0,1.90420,0.00043,382.620,0.157,1.1873,0.0024,140.003,45.000,32472.90964,1.92730,388.299,36.192,45.067,45.000,0.00,0.10,-272.74,-272.80,-2,669,-10,27.0,25.9,5.8,26.7,25.6,5.4,5.73,1.66,3.3,30.5
2015-07-15 01:13:00,0.0,1.90429,0.00055,382.657,0.156,1.1810,0.0013,140.001,45.000,32473.51265,1.92728,388.311,36.192,45.067,45.000,0.00,0.10,-272.73,-272.80,-1,670,-10,27.0,25.8,5.8,26.7,25.6,5.4,5.73,1.64,3.3,30.5
2015-07-15 01:14:00,0.0,1.90475,0.00046,382.060,0.258,1.1810,0.0021,140.000,45.000,32472.36502,1.92776,387.694,36.206,45.067,45.000,0.00,0.10,-272.74,-272.79,-3,670,-10,27.0,25.9,5.8,26.7,25.6,5.4,5.73,1.85,3.3,30.6
2015-07-15 01:15:00,0.0,1.90391,0.00052,382.364,0.138,1.1907,0.0032,139.998,45.000,32471.54015,1.92711,388.058,36.242,45.067,45.000,0.00,0.10,-272.74,-272.80,-1,670,-10,27.0,26.1,5.9,26.7,25.6,5.4,5.73,1.77,3.3,30.6
2015-07-15 01:16:00,0.0,1.90409,0.00047,382.331,0.185,1.1928,0.0021,140.000,45.000,32472.17002,1.92729,388.039,36.247,45.067,45.000,0.00,0.10,-272.73,-272.80,-1,670,-10,27.0,26.1,5.9,26.7,25.6,5.4,5.73,1.60,3.3,30.6
2015-07-15 01:17:00,0.0,1.90412,0.00028,382.249,0.185,1.1933,0.0024,140.000,45.000,32472.00666,1.92740,387.945,36.248,45.066,45.000,0.00,0.10,-272.73,-272.80,-2,670,-10,27.0,26.1,5.9,26.7,25.6,5.4,5.73,1.76,3.3,30.5
2015-07-15 01:18:00,0.0,1.90438,0.00035,382.400,0.119,1.1942,0.0018,140.001,45.000,32471.46071,1.92763,388.117,36.250,45.066,45.000,0.00,0.10,-272.74,-272.80,-1,670,-10,27.0,26.1,5.9,26.7,25.6,5.4,5.73,1.85,3.3,30.5
2015-07-15 01:19:00,0.0,1.90431,0.00044,382.101,0.153,1.1930,0.0023,140.001,45.000,32472.47344,1.92752,387.811,36.256,45.066,45.000,0.00,0.10,-272.73,-272.80,-2,670,-10,27.0,26.1,5.9,26.7,25.6,5.4,5.73,1.65,3.3,30.6
2015-07-15 01:20:00,0.0,1.90465,0.00042,381.621,0.278,1.1967,0.0024,139.999,45.000,32471.51905,1.92800,387.337,36.259,45.066,45.000,0.00,0.10,-272.73,-272.80,-3,670,-10,27.0,26.3,6.0,26.7,25.7,5.4,5.73,1.65,3.3,30.6
2015-07-15 01:21:00,0.0,1.90533,0.00049,381.739,0.282,1.2063,0.0063,140.003,45.000,32472.99999,1.92879,387.475,36.267,45.066,45.000,0.00,0.10,-272.73,-272.80,-1,669,-10,27.0,26.6,6.2,26.7,25.7,5.4,5.73,1.85,3.4,30.6
2015-07-15 01:22:00,0.0,1.90549,0.00034,381.983,0.064,1.2092,0.0033,140.001,45.000,32471.80126,1.92907,387.772,36.273,45.067,45.000,0.00,0.10,-272.74,-272.80,-2,670,-10,27.0,26.4,6.1,26.7,25.7,5.4,5.73,1.76,3.3,30.6
2015-07-15 01:23:00,0.0,1.90594,0.00045,382.222,0.179,1.2010,0.0020,140.002,45.000,32472.83826,1.92934,387.961,36.267,45.067,45.000,0.00,0.10,-272.73,-272.80,-2,670,-10,27.0,26.3,6.0,26.7,25.7,5.4,5.73,1.60,3.3,30.6
2015-07-15 01:24:00,0.0,1.90604,0.00035,382.290,0.123,1.1944,0.0033,140.001,45.000,32469.72752,1.92937,387.994,36.256,45.067,45.000,0.00,0.10,-272.73,-272.80,-1,669,-10,27.0,26.1,5.9,26.7,25.7,5.4,5.73,1.76,3.3,30.6
2015-07-15 01:25:00,0.0,1.90545,0.00041,382.373,0.099,1.1887,0.0024,139.998,45.000,32471.86064,1.92858,388.058,36.263,45.067,45.000,0.00,0.10,-272.74,-272.81,-2,670,-10,27.0,25.9,5.8,26.7,25.7,5.5,5.73,1.85,3.3,30.6
2015-07-15 01:26:00,0.0,1.90589,0.00049,382.268,0.155,1.1847,0.0021,140.005,45.000,32472.02063,1.92898,387.935,36.276,45.067,45.000,0.00,0.10,-272.73,-272.80,-2,669,-10,27.0,25.9,5.8,26.7,25.7,5.5,5.73,1.66,3.3,30.6
2015-07-15 01:27:00,0.0,1.90566,0.00030,382.253,0.151,1.1836,0.0013,139.997,45.000,32469.86536,1.92875,387.901,36.310,45.067,45.000,0.00,0.10,-272.73,-272.80,-1,670,-10,27.0,25.9,5.8,26.7,25.7,5.5,5.73,1.64,3.3,30.6
2015-07-15 01:28:00,0.0,1.90564,0.00024,382.387,0.065,1.1850,0.0018,140.002,45.000,32469.53156,1.92874,388.049,36.313,45.067,45.000,0.00,0.10,-272.74,-272.80,-2,670,-10,27.0,25.8,5.8,26.7,25.8,5.5,5.73,1.85,3.4,30.6
2015-07-15 01:29:00,0.0,1.90567,0.00038,382.215,0.127,1.1811,0.0016,140.000,45.000,32468.36487,1.92867,387.856,36.313,45.067,45.000,0.00,0.10,-272.75,-272.80,-2,669,-10,27.0,25.8,5.8,26.7,25.8,5.5,5.73,1.78,3.3,30.6
2015-07-15 01:30:00,0.0,1.90562,0.00053,382.329,0.121,1.1826,0.0022,140.002,45.000,32468.56825,1.92867,387.979,36.296,45.067,45.000,0.00,0.10,-272.73,-272.80,-1,669,-10,27.0,25.8,5.8,26.7,25.8,5.5,5.73,1.60,3.3,30.6
2015-07-15 01:31:00,0.0,1.90550,0.00043,382.284,0.082,1.1814,0.0015,140.003,45.000,32470.72584,1.92856,387.934,36.283,45.067,45.000,0.00,0.10,-272.73,-272.80,-2,670,-10,27.1,25.8,5.8,26.7,25.8,5.5,5.73,1.73,3.3,30.5
2015-07-15 01:32:00,0.0,1.90598,0.00035,382.013,0.197,1.1799,0.0020,140.001,45.000,32470.65291,1.92890,387.656,36.276,45.067,45.000,0.00,0.10,-272.74,-272.80,-2,669,-10,27.1,25.8,5.8,26.7,25.8,5.5,5.73,1.86,3.4,30.6
2015-07-15 01:33:00,0.0,1.90631,0.00034,381.850,0.126,1.1871,0.0046,139.999,45.000,32468.64675,1.92946,387.515,36.266,45.067,45.000,0.00,0.10,-272.74,-272.79,-1,670,-10,27.1,26.0,5.9,26.7,25.8,5.5,5.73,1.68,3.4,30.6
2015-07-15 01:34:00,0.0,1.90554,0.00050,382.116,0.253,1.1938,0.0024,140.004,45.000,32473.44957,1.92882,387.806,36.275,45.067,45.000,0.00,0.10,-272.73,-272.79,-2,670,-10,27.0,26.1,5.9,26.7,25.9,5.5,5.73,1.62,3.3,30.6
2015-07-15 01:35:00,0.0,1.90534,0.00037,382.353,0.155,1.1855,0.0047,140.004,45.000,32473.70212,1.92845,388.019,36.259,45.067,45.000,0.00,0.10,-272.74,-272.80,-2,669,-10,27.1,25.8,5.8,26.7,25.9,5.5,5.73,1.81,3.4,30.6
2015-07-15 01:36:00,0.0,1.90608,0.00052,382.073,0.138,1.1786,0.0029,139.998,45.000,32469.93312,1.92900,387.713,36.250,45.067,45.000,0.00,0.10,-272.74,-272.80,-1,670,-10,27.1,25.7,5.7,26.7,25.9,5.5,5.73,1.81,3.4,30.6
2015-07-15 01:37:00,0.0,1.90611,0.00035,382.156,0.154,1.1847,0.0036,140.000,45.000,32470.94742,1.92927,387.813,36.250,45.067,45.000,0.00,0.10,-272.73,-272.80,-2,670,-10,27.1,25.9,5.8,26.7,25.9,5.5,5.73,1.62,3.4,30.6
2015-07-15 01:38:00,0.0,1.90612,0.00053,381.642,0.455,1.1872,0.0026,139.995,45.000,32471.09155,1.92919,387.334,36.250,45.067,45.000,0.00,0.10,-272.73,-272.80,-2,669,-10,27.1,25.9,5.9,26.7,25.9,5.5,5.73,1.69,3.4,30.6
2015-07-15 01:39:00,0.0,1.90576,0.00038,381.972,0.462,1.1931,0.0043,140.002,45.000,32471.18847,1.92907,387.632,36.249,45.067,45.000,0.00,0.10,-272.74,-272.80,-1,669,-10,27.1,26.2,6.0,26.7,25.9,5.5,5.73,1.86,3.4,30.6
2015-07-15 01:40:00,0.0,1.90574,0.00034,382.009,0.124,1.1970,0.0037,139.999,45.000,32471.88638,1.92909,387.731,36.248,45.067,45.000,0.00,0.10,-272.74,-272.80,-2,670,-10,27.1,26.1,5.9,26.7,25.9,5.6,5.73,1.72,3.4,30.6
2015-07-15 01:41:00,0.0,1.90587,0.00041,381.909,0.214,1.1912,0.0022,140.000,45.000,32470.70876,1.92907,387.600,36.249,45.067,45.000,0.00,0.10,-272.73,-272.80,-2,669,-10,27.0,26.0,5.9,26.7,25.9,5.5,5.73,1.61,3.4,30.6
2015-07-15 01:42:00,0.0,1.90589,0.00038,381.920,0.179,1.1926,0.0024,140.000,45.000,32470.08114,1.92913,387.607,36.255,45.067,45.000,0.00,0.10,-272.74,-272.80,-1,670,-10,27.1,26.1,5.9,26.7,25.8,5.5,5.73,1.78,3.4,30.6
2015-07-15 01:43:00,0.0,1.90621,0.00043,382.036,0.130,1.1914,0.0026,139.998,45.000,32469.05279,1.92942,387.737,36.272,45.067,45.000,0.00,0.10,-272.74,-272.80,-2,670,-10,27.1,26.0,5.9,26.8,25.9,5.6,5.73,1.84,3.4,30.6
2015-07-15 01:44:00,0.0,1.90645,0.00035,381.575,0.152,1.1888,0.0024,140.002,45.000,32472.00056,1.92963,387.252,36.296,45.067,45.000,0.00,0.10,-272.73,-272.79,-2,669,-10,27.1,26.0,5.9,26.7,25.9,5.5,5.73,1.65,3.4,30.6
2015-07-15 01:45:00,0.0,1.90660,0.00068,381.387,0.273,1.1999,0.0044,139.997,45.000,32469.48521,1.93000,387.092,36.299,45.067,45.000,0.00,0.10,-272.74,-272.80,-1,669,-10,27.1,26.3,6.1,26.7,25.8,5.5,5.73,1.65,3.4,30.6
2015-07-15 01:46:00,0.0,1.90639,0.00044,381.953,0.105,1.2068,0.0034,139.999,45.000,32469.47918,1.92996,387.726,36.304,45.067,45.000,0.00,0.10,-272.74,-272.80,-2,670,-10,27.0,26.3,6.1,26.7,25.8,5.5,5.73,1.84,3.4,30.6
2015-07-15 01:47:00,0.0,1.90634,0.00034,382.082,0.097,1.1952,0.0036,140.001,45.000,32472.43111,1.92964,387.784,36.310,45.066,45.000,0.00,0.10,-272.73,-272.80,-2,669,-10,27.1,26.0,5.9,26.7,25.9,5.5,5.73,1.78,3.4,30.6